Regional Weather Roundup
Issued by NWS

Home | Current Version | Previous Version | Text Only | Print | Product List | Glossary Off
Versions: 1 2 3 4 5 6 7 8 9 10 11 12 13 14 15 16 17 18 19 20 21 22 23 24 25 26 27 28 29 30 31 32 33 34 35 36 37 38 39 40 41 42 43 44 45 46 47 48 49 50

000
ASUS43 KMPX 202010
RWRMN
WEATHER ROUNDUP FOR MINNESOTA
NATIONAL WEATHER SERVICE TWIN CITIES/CHANHASSEN MN
300 PM CDT SAT SEP 20 2014


NOTE: "FAIR" INDICATES FEW OR NO CLOUDS BELOW 12,000 FEET WITH NO
SIGNIFICANT WEATHER AND/OR OBSTRUCTIONS TO VISIBILITY. N/A MEANS
CURRENT SKY AND/OR WEATHER CONDITIONS ARE NOT AVAILABLE.

MNZ060>063-068>070-202100-
   Twin Cities Metro

CITY           SKY/WX    TMP DP  RH WIND       PRES   REMARKS
TWIN CITIES    MOSUNNY   76  54  46 W16       29.77S
ST PAUL        SUNNY     76  54  46 W17       29.77S
CRYSTAL        MOSUNNY   76  54  46 W12       29.76S
BLAINE         MOSUNNY   75  55  50 W15       29.77S
LAKEVILLE      SUNNY     73  55  53 W15G21    29.78S
EDEN PRAIRIE   MOSUNNY   77  56  48 W13G21    29.77F
SOUTH ST PAUL  SUNNY     76  52  43 NW15G23   29.77R
LAKE ELMO      FAIR      72  55  56 NW12      29.78S
$$
MNZ001>005-007-008-013>017-022>024-027-028-202100-
   Northwest Minnesota

CITY           SKY/WX    TMP DP  RH WIND       PRES   REMARKS
BEMIDJI        MOSUNNY   64  55  73 SW5       29.71F
HALLOCK        CLOUDY    55  54  94 NW15G30   29.73F
ROSEAU         HVY RAIN  55  50  82 N5        29.71S
WARROAD        LGT RAIN  57  52  82 W6        29.71S
THIEF RVR FALL CLOUDY    57  54  88 NW18G26   29.74R
CROOKSTON      CLOUDY    55  55 100 NW17G30   29.78R
FOSSTON        CLOUDY    52  52 100 W8        29.76F
DETROIT LAKES  CLOUDY    55  54  94 NW17      29.82R THUNDER
MOORHEAD       CLOUDY    61  57  88 NW14G22   29.81S
PARK RAPIDS    PTSUNNY   66  54  65 W16       29.75S
MAHNOMEN       RAIN      55  54  96 W18G25    29.78S
$$
MNZ006-009>011-018-025>026-202100-
   North Central Minnesota

CITY           SKY/WX    TMP DP  RH WIND       PRES   REMARKS
BAUDETTE       CLOUDY    62  48  60 N7        29.69F
FLAG ISLAND    PTSUNNY   54  48  82 CALM      29.70F
INTL FALLS     MOSUNNY   59  47  64 NW7       29.70F
WASKISH        PTSUNNY   63  55  77 CALM      29.70F
BIG FORK       PTSUNNY   66  46  48 SW3G9     29.71F
LONGVILLE      MOSUNNY   64  55  72 SW6       29.73F
GRAND RAPIDS   PTSUNNY   64  50  59 W12       29.73F
CRANE LAKE     CLOUDY    54  52  94 CALM      29.73F
ORR            MOSUNNY   61  45  55 NW5       29.69F
COOK           MOSUNNY   63  46  55 W6        29.71F
WALKER         CLOUDY    64  55  73 SW6       29.73F
$$
MNZ012-019>021-037-202100-
   Northeast Minnesota

CITY           SKY/WX    TMP DP  RH WIND       PRES   REMARKS
DULUTH         MOSUNNY   68  46  45 NW15      29.71S
ELY            CLOUDY    55  50  82 W7        29.72F
HIBBING        MOSUNNY   66  46  48 NW10      29.71F
EVELETH        MOSUNNY   64  45  48 W12       29.72F
DULUTH HARBOR  SUNNY     70  52  52 W13       29.70F
TWO HARBORS    SUNNY     68  45  42 W8        29.69R
SILVER BAY     SUNNY     61  55  82 NW6       29.70S
GRAND MARAIS     N/A     69  51  52 CALM      29.65S
G MARAIS ARPRT PTSUNNY   61  48  63 NW6       29.70R
$$
MNZ029>031-032-039>041-046>048-054>057-064-202100-
   West Central Minnesota

CITY           SKY/WX    TMP DP  RH WIND       PRES   REMARKS
FERGUS FALLS   CLOUDY    59  57  94 NW14      29.81R
WHEATON        TSTM      55  55 100 NW14      29.85R
MORRIS         LGT RAIN  72  57  60 NW43G55   29.77R
ALEXANDRIA     PTSUNNY   69  56  62 W7        29.78F
ELBOW LAKE     TSTM      57  56  97 NW17G24   29.82R
WADENA         PTSUNNY   66  55  68 W6        29.76S
GLENWOOD       MOSUNNY   70  55  60 SW5       29.77F
APPLETON       LGT RAIN  79  54  41 W12G18    29.74F
BENSON         MOSUNNY   75  57  53 W9        29.74F
ORTONVILLE     MOSUNNY   75  54  46 W17G25    29.76F
MADISON        LGT RAIN  79  55  44 W18G26    29.78F
WILLMAR        FAIR      79  54  41 W13G20    29.79F
$$
MNZ033>034-036-042>043-049>051-058-059-202100-
   Central Minnesota

CITY           SKY/WX    TMP DP  RH WIND       PRES   REMARKS
ST CLOUD       MOSUNNY   76  54  46 NW14      29.75F
SAUK CENTRE    FAIR      70  55  59 W14       29.78F
PAYNESVILLE    SUNNY     72  53  51 SW13G20   29.78F
AITKIN         PTSUNNY   70  55  60 W5        29.73F
PINE RIVER     PTSUNNY   66  55  68 SW6       29.78F
BRAINERD       MOSUNNY   68  56  65 NW8       29.75F
STAPLES        MOSUNNY   68  54  60 W10       29.76S
LONG PRAIRIE   FAIR      68  54  60 W10       29.77F
LITTLE FALLS   MOSUNNY   70  52  52 W8        29.76F
LITCHFIELD     SUNNY     75  55  50 W8        29.78F
BUFFALO        MOSUNNY   74  52  45 W13       29.78F
MAPLE LAKE     SUNNY     75  57  53 W9G17     29.78F
$$
MNZ037-044-045-052-053-202100-
   East Central Minnesota

CITY           SKY/WX    TMP DP  RH WIND       PRES   REMARKS
PRINCETON      MOSUNNY   75  57  53 W13       29.77F
MORA           MOSUNNY   70  54  56 W12       29.77F
CAMBRIDGE      SUNNY     73  57  56 W12G17    29.75S
RUSH CITY      PTSUNNY   71  56  58 NW8       29.76S
MOOSE LAKE     PTSUNNY   68  52  56 W5        29.72F
HINCKLEY       FAIR      70  55  60 W13       29.76S
CLOQUET        MOSUNNY   66  48  52 W14       29.72S
MCGREGOR       PTSUNNY   66  54  63 NW8       29.74F
$$
MNZ071>073-080-081-089-090-097-098-202100-
   Southwest Minnesota

CITY           SKY/WX    TMP DP  RH WIND       PRES   REMARKS
MONTEVIDEO     MOSUNNY   81  55  41 W7G18     29.78F
GRANITE FALLS  MOSUNNY   79  56  44 W15       29.80F
CANBY          PTSUNNY   77  54  44 W15G25    29.81F
MARSHALL       SUNNY     81  54  39 W22G31    29.80F
REDWOOD FALLS  MOSUNNY   80  55  42 W16G23    29.79F
OLIVIA         SUNNY     77  55  47 W16       29.78F
PIPESTONE      SUNNY     81  52  36 W18G31    29.87S
WINDOM         MOSUNNY   81  54  39 W15       29.83F
WORTHINGTON    SUNNY     79  54  41 W14G24    29.86F
JACKSON        SUNNY     79  52  38 W16       29.85F
TRACY          SUNNY     81  54  39 W14       29.82F
SLAYTON        SUNNY     78  51  38 W17G23    29.85F
$$
MNZ065>067-074>077-082>085-091>093-202100-
   South Central Minnesota

CITY           SKY/WX    TMP DP  RH WIND       PRES   REMARKS
MANKATO        SUNNY     77  52  41 NW18      29.80F
NEW ULM        SUNNY     79  57  47 W13       29.79F
ST JAMES       MOSUNNY   81  54  39 W12G22    29.82F
FAIRMONT       MOSUNNY   81  52  36 NW14G21   29.83S
GLENCOE        SUNNY     76  52  42 W10       29.78F
FARIBAULT      SUNNY     81  46  30 W10G17    29.80F
OWATONNA       SUNNY     77  54  44 W14G20    29.81S
WASECA         SUNNY     77  52  41 W13       29.83S
ALBERT LEA     SUNNY     77  54  44 W9G18     29.82S
$$
MNZ078>079-086>088-094>096-202100-
   Southeast Minnesota

CITY           SKY/WX    TMP DP  RH WIND       PRES   REMARKS
ROCHESTER      SUNNY     76  55  48 NW12G21   29.81F
RED WING       SUNNY     79  54  41 NW10      29.76R
STANTON        SUNNY     76  54  45 W14G21    29.78R
DODGE CENTER   SUNNY     75  55  50 NW14      29.81R
WINONA         MOSUNNY   77  57  50 NW12G23   29.76S
AUSTIN         SUNNY     75  55  50 NW16      29.81S
PRESTON        SUNNY     74  61  65 NW15      29.81S
$$
ABBREVIATIONS USED IN REMARKS
   TC - TEMPERATURES IN CELSIUS
  WCI - WIND CHILL INDEX
   HX - HEAT INDEX
  VSB - VISIBILITY
$$



USA.gov is the U.S. government's official web portal to all federal, state and local government web resources and services.